Showing default

HYPSO-1, 51053

Orbit data source: Space-Track

HYPSO-1, 51053 is a payload satellite owned by NTNU (NO) in SSO that was launched on Thu, 13 Jan 2022 UTC via an FALCON 9 launch vehicle from the Air Force Eastern Test Range (AFETR). Payload-class satellites include a variety of spacecraft equipped with specific instruments for various scientific and technological missions. These include communications satellites like Starlink; space stations such as the ISS; scientific satellites like the Hubble; Earth observation satellites from companies like Planet Labs, Umbra, and HawkEye 360; GPS; miniature CubeSats for education and research; and military/defense satellites.

Not visible in the next 10 days
Identifier
51053, 2022-002BX
Orbit
SSO
Country
Flag of NONO / NOR
Related business
Manufacturer
NanoAvionics
Mission
Operational Amateur Imaging
Bus & Motor
CUBESAT 6U, Unknown motor
Mass
~10 kg wet, ~10 kg dry
Launch date (UTC)
2022-01-13 (5 years ago)
Launch vehicle
FALCON 9
Launch site
Air Force Eastern Test Range (AFETR)
Object type
Payload
Rocket body
Debris
Shape & HBR
Box + 2 Pan, 0.2 m
Radar Cross Section
0.080 m², Medium (>0.1 m² and < 1m²)

Expand to show TLE details & history
Last TLE update: 21 hours ago

TLE from 21 hours ago
0 HYPSO-1
1 51053U 22002BX  26263.14314119  .00162615  11495-4  57886-3 0  9995
2 51053  97.2697 349.2176 0004525 258.3163 101.7602 15.88929264261899
Epoch: 2026-09-20T03:26Z
TLE epoch observation values (Epoch: 2026-09-20T03:26:07.398Z)
Latitude
-0.00004°
Longitude
-61.35478°
Altitude
309.089 km
Speed
7.722 km/s
True Right ascension
23h 16m 52s
True Declination
0° 00' 00"
Sunlit
Object was in full shadow at epoch
Visualization orbit readout
Latitude
Unknown
Longitude
Unknown
Altitude
Unknown
Speed
Unknown
Apparent Right ascension
Unknown
Apparent Declination
Unknown
Sunlit
N/A
Visualization observer readout
Local Sidereal Time
17:12:29
Azimuth
Unknown
Elevation
Unknown
Doppler factor
Unknown
Orbital elements
Apogee altitude
305.175 km
Perigee altitude
299.13 km
Semi-major axis
6,680.289 km
Eccentricity
0.00045
Inclination
97.2697°
RAAN
349.2176°
Arg. of periapsis
258.3163°
True anomaly
101.81096°
Mean anomaly
101.7602°
Eccentric anomaly
101.78558°
Mean motion
3.97512 °/min
Orbital period
90.56 mins
BSTAR
0.00057886
Loading maneuver chart data...
Computing Atmospheric mass density...

Documentation

Showing up to 5 results
|